Regional Weather Roundup
Issued by NWS

Home | Current Version | Previous Version | Text Only | Print | Product List | Glossary On
Versions: 1 2 3 4 5 6 7 8 9 10 11 12 13 14 15 16 17 18 19 20 21 22 23 24 25 26 27 28 29 30 31 32 33 34 35 36 37 38 39 40 41 42 43 44 45 46 47 48 49 50
000
ASUS46 KPQR 221810
RWROR

OREGON REGIONAL WEATHER ROUNDUP
NATIONAL WEATHER SERVICE PORTLAND OR
1100 AM PDT SUN OCT 22 2017

NOTE: "FAIR" INDICATES FEW OR NO CLOUDS BELOW 12,000 FEET WITH
NO SIGNIFICANT WEATHER AND/OR OBSTRUCTIONS TO VISIBILITY.

ORZ001>013-221900-
NORTHWEST OREGON


CITY           SKY/WX    TMP DP  RH WIND       PRES   REMARKS
ASTORIA        MOSUNNY   59  51  75 SW12      30.21R
6HR MIN TEMP:  55; 6HR MAX TEMP:  59; 6HR PCP: TRACE;

NEWPORT        CLOUDY    55  55 100 S17G23    30.21F FOG
PORTLAND       PTSUNNY   57  53  86 S14       30.24R
6HR MIN TEMP:  55; 6HR MAX TEMP:  58; 6HR PCP:  0.01;

VANCOUVER WA   PTSUNNY   58  54  86 VRB5      30.24R
6HR MIN TEMP:  56; 6HR MAX TEMP:  58; 6HR PCP: TRACE;

SCAPPOOSE      MOSUNNY   56  54  93 SE5       30.22R
6HR MIN TEMP:  48; 6HR MAX TEMP:  58;

HILLSBORO      NOT AVBL
AURORA         CLOUDY    58  58 100 S8        30.26R
6HR MIN TEMP:  54; 6HR MAX TEMP:  58; 6HR PCP:  0.05;

MCMINNVILLE    LGT RAIN  57  56  96 S10       30.26R
6HR MIN TEMP:  53; 6HR MAX TEMP:  58; 6HR PCP:  0.35;

SALEM          LGT RAIN  58  54  86 S12       30.26R
6HR MIN TEMP:  55; 6HR MAX TEMP:  58; 6HR PCP:  0.20;

CORVALLIS      CLOUDY    57  56  96 S10       30.29R
EUGENE         CLOUDY    56  55  97 S8        30.32R
6HR MIN TEMP:  55; 6HR MAX TEMP:  57; 6HR PCP:  0.60;

$$

ORZ021-028-221900-
SOUTHWEST OREGON


CITY           SKY/WX    TMP DP  RH WIND       PRES   REMARKS
NORTH BEND     CLOUDY    59  57  94 S6        30.35R
6HR MIN TEMP:  57; 6HR MAX TEMP:  60; 6HR PCP:  1.22;

BROOKINGS      RAIN      56  55  97 VRB6      30.40R FOG
ROSEBURG       LGT RAIN  58  58 100 CALM      30.34R FOG
6HR MIN TEMP:  57; 6HR MAX TEMP:  62; 6HR PCP:  0.67;

SEXTON SUMMIT  FOG       48  48 100 SW13G23   30.35R VSB<1/4
6HR MIN TEMP:  46; 6HR MAX TEMP:  48; 6HR PCP:  0.04;

GRANTS PASS    PTSUNNY   59  54  82 CALM      30.39R
MEDFORD        CLOUDY    54  52  93 CALM      30.34R
6HR MIN TEMP:  49; 6HR MAX TEMP:  54;

$$

ORZ014>016-041-221900-
COLUMBIA GORGE


CITY           SKY/WX    TMP DP  RH WIND       PRES   REMARKS
TROUTDALE      CLOUDY    59  52  77 SW8       30.24R
6HR MIN TEMP:  57; 6HR MAX TEMP:  60; 6HR PCP:  0.03;

HOOD RIVER     MOSUNNY   55  48  76 NW3       30.19R
THE DALLES     CLOUDY    61  50  67 NW8G18    30.18R
6HR MIN TEMP:  53; 6HR MAX TEMP:  62; 6HR PCP:  0.22;

$$

ORZ029>031-041-044-049-050-061>064-502-503-505>511-221900-
EASTERN OREGON


CITY           SKY/WX    TMP DP  RH WIND       PRES   REMARKS
MADRAS         PTSUNNY  N/A N/A N/A SE8       30.24S
REDMOND        LGT RAIN  53  45  74 NW17G24   30.26R
6HR MIN TEMP:  51; 6HR MAX TEMP:  56; 6HR PCP:  0.02;

BEND           CLOUDY    54  48  82 N7        30.26R
PRINEVILLE     CLOUDY    54  45  71 NW18      30.27R
KLAMATH FALLS  MOSUNNY   54  41  61 SW13      30.38R
6HR MIN TEMP:  41; 6HR MAX TEMP:  54;

LAKEVIEW       CLOUDY    47  41  80 S14       30.41R
HERMISTON      PTSUNNY   62  48  60 W16G23    30.17R HAZE
6HR MIN TEMP:  56; 6HR MAX TEMP:  62; 6HR PCP:  0.04;

PENDLETON      PTSUNNY   55  44  66 W21G29    30.17R
6HR MIN TEMP:  52; 6HR MAX TEMP:  62; 6HR PCP:  0.03;

JOHN DAY       DRIZZLE   50  48  92 CALM      30.24R
MEACHAM        CLOUDY    47  44  90 VRB5      30.19R
6HR MIN TEMP:  45; 6HR MAX TEMP:  53; 6HR PCP:  0.27;

LA GRANDE      LGT RAIN  50  47  89 NE5       30.20R
6HR MIN TEMP:  48; 6HR MAX TEMP:  52; 6HR PCP:  0.11;

BAKER CITY     CLOUDY    54  44  69 S20G26    30.17R
6HR MIN TEMP:  51; 6HR MAX TEMP:  55; 6HR PCP: TRACE;

BURNS          LGT RAIN  53  43  68 S22G29    30.27R
6HR MIN TEMP:  43; 6HR MAX TEMP:  53; 6HR PCP: TRACE;

ROME             N/A     61  36  39 SW24G36   30.29R
6HR MIN TEMP:  46; 6HR MAX TEMP:  61;

ONTARIO        CLOUDY    55  47  74 CALM      30.26R
6HR MIN TEMP:  43; 6HR MAX TEMP:  56;

$$



USA.gov is the U.S. government's official web portal to all federal, state and local government web resources and services.